Preview of NWS' New Version of Forecast
This preview is not operational and should not be used for support decisions.

Regional Weather Roundup (RWR)

Issued by National Weather Service (NWS)

                            
000
ASPQ40 PGUM 210010
RWRPQ 
WEATHER ROUNDUP FOR THE MARIANAS AND MICRONESIA
NATIONAL WEATHER SERVICE TIYAN GU
1000 AM CHST WED AUG 21 2019

GUZ001>004-210100-
MARIANA ISLANDS-
  
CITY           SKY/WX    TMP DP  RH WIND       PRES   REMARKS
GUAM AIRPORT   MOSUNNY   88  75  66 W9        29.90R HX  97           
ANDERSEN AFB   MOSUNNY   86  72  62 N6        29.90S HX  92           
ROTA AIRPORT   MOSUNNY   84  72  65 E9        29.87R                  
TINIAN AP      MOSUNNY   88  75  66 E7        29.87S HX  97           
SAIPAN AP      MOSUNNY   88  77  70 E6        29.88S HX 100           

$$

PMZ161-210100-
REPUBLIC OF PALAU-
  
CITY           SKY/WX    TMP DP  RH WIND       PRES   REMARKS
KOROR AP       PTSUNNY   86  75  70 W17G25    29.80S HX  95           
KOROR WSO      NOT AVBL                                               

$$

PMZ171>174-210100-
FEDERATED STATES OF MICRONESIA-
  
CITY           SKY/WX    TMP DP  RH WIND       PRES   REMARKS
YAP AIRPORT    PTSUNNY   86  79  79 VRB6      29.84S HX  99           
CHUUK AP       CLOUDY    88  81  79 N9        29.78  HX 105           
POHNPEI AP     PTSUNNY   90  79  70 E7        29.76S HX 105           
POHNPEI WSO    PTSUNNY   88  77  70 NE5       29.81S HX 100           
KOSRAE AP      PTSUNNY   88  79  74 W6        29.78S HX 102           

$$

PMZ181-210100-
REPUBLIC OF THE MARSHALL ISLANDS-
  
CITY           SKY/WX    TMP DP  RH WIND       PRES   REMARKS
KWAJALEIN AP   PTSUNNY   86  79  79 S14       29.81S HX  99           
MAJURO AP      NOT AVBL                                               
MAJURO WSO     PTSUNNY   86  77  74 E5        29.79F HX  97           

$$